Location: Golden Pond Observatory
(36.7773°N, 88.0631°W)
Time: 14:16:19
(UTC-05:00)

Hubble Space Telescope - Visible Passes

Search period start: 23 October 2019 00:00
Search period end: 02 November 2019 00:00
Orbit: 536 x 540 km, 28.5° (Epoch: 23 October)

Date Brightness Start Highest point End Pass type
(mag) Time Alt. Az. Time Alt. Az. Time Alt. Az.
26 Oct 3.6 06:37:59 10° S 06:39:14 11° SSE 06:40:30 10° SE visible
27 Oct 3.4 06:26:30 10° SSW 06:28:32 13° SSE 06:30:35 10° SE visible
28 Oct 3.3 06:15:20 10° SSW 06:17:51 16° SSE 06:20:21 10° SE visible
29 Oct 3.0 06:04:21 10° SSW 06:07:10 18° SSE 06:10:00 10° ESE visible
30 Oct 2.8 05:53:46 11° SSW 05:56:30 20° SSE 05:59:33 10° ESE visible
31 Oct 2.6 05:43:59 16° SSW 05:45:50 22° S 05:49:03 10° ESE visible
01 Nov 2.4 05:34:10 21° SSW 05:35:10 23° S 05:38:29 10° ESE visible
